sat.trackr.live / text

‹ back to catalog

STARLINK-30616

NORAD 58105 · 2023-161J

PAYLOAD ACTIVE UNKNOWN

§ Identity

Operator
Country
US
Launch date
2023-10-21
Launch site
AFWTR
Launch vehicle
Mass (kg)
RCS (m²)

Purposes: comms

External: N2YO · Heavens-Above · Gunter

§ Orbital elements

Epoch: 2026-09-20T10:48:20.132928Z

Period
93.85 min
Inclination
53.1610°
Eccentricity
0.0001208
Mean motion
15.34397495 rev/d
Perigee alt
461.9 km
Apogee alt
463.5 km
Semi-major
6,840.8 km
B*
3.4682e-5
RAAN
324.1591°
Arg perigee
98.1093°
Mean anomaly
262.0047°
Rev number
16,446

§ Raw data

STARLINK-306161 58105U 23161J   26263.45023302  .00000796  00000+0  34682-4 0  99982 58105  53.1610 324.1591 0001208  98.1093 262.0047 15.34397495164465

JSON: /api/v1/satellites/58105 · /tle

For live sub-satellite position, see the globe view (requires WebGL).

§ Visibility from observer

Set your observer location to see the next 7 days of passes ≥ 10°. The values pass through the URL so the page stays shareable.

No JS? Fill the form by hand. The geolocation button needs JavaScript.